www.pogodaiklimat.ru

Погода и климат >> Архив погоды >> Франция >> Мененгейм


ПОГОДА в Мененгейме

  • Прогноз погоды в Мененгейме
  • Монитор погоды в Мененгейме

АРХИВ ПОГОДЫ в Мененгейме

Время (UTC), дата Ветер
(напр.,м/с)
 
Видим.   Явления Облачность Т
(С)
Тd
(С)
f
(%)
Тe
(С)
Тes
(С)
Комфортность P
(гПа)
Po
(гПа)
Тmin
(С)
Tmax
(С)
R
(мм)
R24
(мм)
S
(см)
19 8.09 Ю 1 20 км н/о +11.2 +10.4 95 +12 +12 1018.5 993.4 0.0
20 8.09 Ю 1 20 км н/о +11.1 +10.3 95 +11 +11 1018.6 993.5
21 8.09 Ю 1 20 км н/о +10.8 +10.0 95 +10 +10 1018.6 993.5 0.0
22 8.09 Ю 1 20 км н/о +10.7 +9.8 94 +10 +10 1018.4 993.3
23 8.09 Ю 1 20 км н/о +10.8 +10.0 95 +10 +10 1018.3 993.2
00 9.09 Ю 1 19 км н/о +10.7 +9.9 95 +11 +11 1018.2 993.1 0.2
01 9.09 Ю 1 15 км н/о +10.5 +9.9 96 +11 +11 1018.1 993.0
02 9.09 Ю 1 19 км н/о +10.3 +9.5 95 +11 +11 1017.9 992.8
03 9.09 Ю 2 20 км н/о +10.2 +9.1 93 +9 +9 1018.0 992.9
04 9.09 ЮЗ 1 20 км н/о +10.1 +9.2 94 +9 +9 1018.1 992.9
05 9.09 Ю 1 20 км н/о +9.9 +8.8 93 +9 +9 1018.1 992.9
06 9.09 Ю 1 20 км н/о +10.2 +9.1 93 +10 +10 1018.1 993.0 +9.8 +11.5 0.2
07 9.09 Ю 1 19 км н/о +11.4 +9.5 88 +11 +11 1017.9 992.9
08 9.09 Ю 2 20 км н/о +13.0 +10.2 83 +13 +13 1018.1 993.2
09 9.09 ЮВ 1 20 км н/о +15.1 +9.7 70 +16 +16 1017.8 993.1
10 9.09 Ю 1 20 км н/о +16.1 +9.3 64 +17 +17 1017.2 992.6
11 9.09 ЮВ 1 20 км н/о +16.0 +8.0 59 +17 +17 1016.8 992.2
12 9.09 С 2 20 км н/о +15.5 +8.9 65 +15 +15 1016.6 991.9
13 9.09 С 2 20 км н/о +16.6 +8.8 60 +17 +17 1015.8 991.3
14 9.09 В 1 20 км н/о +17.1 +8.2 56 +19 +19 1015.2 990.7
15 9.09 СЗ 1 20 км н/о +18.3 +7.4 49 +20 +20 1014.6 990.2
16 9.09 СЗ 1 20 км н/о +18.0 +6.5 47 +20 +20 1014.5 990.1
17 9.09 С 1 20 км н/о +16.4 +8.4 59 +17 +17 1014.4 989.9
18 9.09 СВ 1 20 км н/о +15.1 +8.3 64 +16 +16 1014.9 990.2 +10.2 +19.0
19 9.09 штиль 0 20 км н/о +12.8 +9.2 79 +12 +12 1015.3 990.4
20 9.09 штиль 0 20 км н/о +11.0 +8.9 87 +10 +10 1015.7 990.7
21 9.09 штиль 0 20 км н/о +10.0 +8.6 91 +9 +9 1015.8 990.7
22 9.09 штиль 0 20 км н/о +9.7 +8.6 93 +9 +9 1015.8 990.7
23 9.09 штиль 0 19 км н/о +9.2 +8.3 94 +8 +8 1015.9 990.7
00 10.09 ЮВ 1 20 км н/о +9.8 +8.7 93 +10 +10 1016.0 990.9
01 10.09 ЮЗ 1 20 км н/о +9.6 +8.2 91 +10 +10 1016.2 991.0
02 10.09 штиль 0 19 км н/о +8.3 +7.4 94 +7 +7 1016.1 990.8
03 10.09 штиль 0 19 км н/о +7.5 +6.8 95 +6 +6 1015.8 990.5
04 10.09 С 1 19 км н/о +7.0 +6.3 95 +7 +7 1015.7 990.3
05 10.09 СВ 1 18 км н/о +8.1 +7.5 96 +8 +8 1015.8 990.5
06 10.09 С 1 20 км н/о +8.9 +8.1 95 +8 +8 1016.4 991.2 +6.9 +15.1
07 10.09 С 1 19 км н/о +10.0 +8.6 91 +10 +10 1016.8 991.7
08 10.09 СВ 1 19 км н/о +13.3 +9.9 80 +13 +13 1016.8 992.0
09 10.09 С 1 20 км н/о +15.3 +10.1 71 +16 +16 1017.1 992.4
10 10.09 С 2 20 км н/о +17.1 +9.3 60 +18 +18 1017.0 992.5
11 10.09 С 1 20 км н/о +18.9 +10.2 57 +21 +21 комфорт 1016.5 992.1
12 10.09 С 1 20 км н/о +20.0 +9.0 49 +22 +22 комфорт 1016.4 992.1
13 10.09 С 2 20 км н/о +20.8 +9.1 47 +23 +23 комфорт 1016.4 992.2
14 10.09 СВ 2 20 км н/о +21.0 +7.9 43 +23 +23 комфорт 1016.2 992.0
15 10.09 СВ 2 20 км н/о +21.5 +7.0 39 +22 +22 комфорт 1016.4 992.2
16 10.09 С 2 20 км н/о +20.8 +8.1 44 +23 +23 комфорт 1016.8 992.6
17 10.09 С 1 20 км н/о +19.5 +8.2 48 +21 +21 комфорт 1017.2 992.9
18 10.09 СВ 1 20 км н/о +16.4 +9.1 62 +18 +18 1018.3 993.7 +8.9 +21.8
19 10.09 С 1 20 км н/о +13.0 +9.3 78 +13 +13 1019.4 994.5
20 10.09 С 1 20 км н/о +11.8 +8.8 82 +12 +12 1020.0 994.9
21 10.09 С 1 20 км н/о +11.3 +8.7 84 +12 +12 1020.2 995.1
22 10.09 С 1 20 км н/о +12.3 +8.9 80 +12 +12 1020.5 995.5
23 10.09 С 1 20 км н/о +12.9 +8.6 75 +13 +13 1020.9 995.9
00 11.09 СВ 1 20 км н/о +13.1 +8.2 72 +13 +13 1021.0 996.0
01 11.09 В 1 20 км н/о +9.9 +7.8 87 +10 +10 1021.5 996.2
02 11.09 штиль 0 20 км н/о +8.4 +7.2 92 +7 +7 1022.0 996.6
03 11.09 штиль 0 17 км н/о +8.9 +7.8 93 +8 +8 1022.3 996.9
04 11.09 штиль 0 13 км н/о +7.7 +6.6 93 +7 +7 1022.8 997.3
05 11.09 Ю 1 18 км н/о +7.3 +6.6 95 +7 +7 1023.8 998.2
06 11.09 Ю 1 18 км н/о +8.8 +8.2 96 +9 +9 1024.4 999.0 +7.2 +16.3
07 11.09 ЮВ 1 20 км н/о +12.6 +9.2 80 +13 +13 1024.2 999.1
08 11.09 З 1 20 км н/о +15.3 +9.6 69 +17 +17 1024.5 999.6
09 11.09 ЮВ 1 20 км н/о +17.7 +9.8 60 +19 +19 1024.7 1000.0
10 11.09 С 1 20 км н/о +19.7 +9.8 53 +22 +22 комфорт 1024.5 1000.0
11 11.09 СВ 1 20 км н/о +20.5 +10.0 51 +24 +24 комфорт 1024.1 999.7
12 11.09 СВ 1 20 км н/о +20.4 +8.7 47 +23 +23 комфорт 1024.3 999.9
13 11.09 СВ 1 20 км н/о +20.8 +9.4 48 +24 +24 комфорт 1024.3 999.9
14 11.09 СЗ 1 20 км н/о +20.8 +9.4 48 +24 +24 комфорт 1024.5 1000.1
15 11.09 штиль 0 20 км н/о +21.2 +10.1 49 +23 +23 комфорт 1024.7 1000.3
16 11.09 С 1 20 км н/о +20.4 +10.5 53 +24 +24 комфорт 1025.2 1000.8
17 11.09 штиль 0 20 км н/о +19.6 +11.6 60 +21 +21 комфорт 1025.6 1001.1
18 11.09 СЗ 1 20 км н/о +17.9 +13.4 75 +20 +20 1026.2 1001.5 +8.8 +21.2
19 11.09 ЮЗ 1 20 км н/о +16.8 +12.5 76 +18 +18 1027.0 1002.2
20 11.09 ЮЗ 1 20 км н/о +15.6 +12.7 83 +17 +17 1027.5 1002.6
21 11.09 Ю 1 20 км н/о +14.1 +11.4 84 +15 +15 1028.0 1003.0
22 11.09 Ю 1 20 км н/о +13.5 +11.4 87 +14 +14 1028.2 1003.1
23 11.09 Ю 1 20 км н/о +12.4 +10.3 87 +12 +12 1028.7 1003.5
00 12.09 Ю 1 20 км н/о +12.7 +9.3 80 +13 +13 1029.0 1003.8
01 12.09 Ю 1 20 км н/о +13.5 +9.0 74 +14 +14 1029.3 1004.2
02 12.09 Ю 1 20 км н/о +12.7 +8.4 75 +13 +13 1029.6 1004.4
03 12.09 Ю 1 20 км н/о +12.3 +8.4 77 +12 +12 1029.8 1004.5
04 12.09 Ю 1 20 км н/о +10.5 +8.8 89 +10 +10 1030.0 1004.6
05 12.09 Ю 1 20 км н/о +11.4 +8.8 84 +11 +11 1030.2 1004.9
06 12.09 ЮЗ 1 20 км н/о +11.7 +8.9 83 +12 +12 1030.8 1005.5 +10.1 +17.9
07 12.09 Ю 2 20 км н/о +14.7 +9.7 72 +14 +14 1030.8 1005.7
08 12.09 Ю 2 20 км н/о +17.3 +9.7 61 +18 +18 1031.1 1006.2
09 12.09 Ю 1 20 км н/о +19.9 +9.5 51 +22 +22 комфорт 1031.2 1006.6
10 12.09 Ю 1 20 км н/о +22.4 +9.9 45 +24 +24 комфорт 1031.2 1006.8
11 12.09 ЮЗ 1 20 км н/о +24.0 +9.6 40 +25 +25 комфорт 1030.8 1006.5
12 12.09 З 1 10 км н/о +25.0 +9.3 37 +26 +26 жарко 1030.4 1006.2
13 12.09 ЮЗ 1 20 км н/о +26.0 +9.8 36 +27 +27 жарко 1029.9 1005.8
14 12.09 З 1 20 км н/о +26.5 +9.8 35 +27 +27 жарко 1029.6 1005.5
15 12.09 Ю 1 18 км н/о +26.8 +10.1 35 +27 +27 жарко 1029.1 1005.1
16 12.09 ЮЗ 1 20 км н/о +26.7 +10.4 36 +27 +27 жарко 1029.0 1005.0
17 12.09 Ю 1 20 км н/о +26.0 +10.6 38 +27 +27 жарко 1029.3 1005.2
18 12.09 ЮВ 1 20 км н/о +20.3 +12.0 59 +24 +24 комфорт 1030.0 1005.4 +11.7 +27.3
19 12.09 штиль 0 20 км н/о +16.8 +12.3 75 +17 +17 1030.7 1005.8
20 12.09 СВ 1 20 км н/о +15.4 +11.6 78 +17 +17 1031.0 1006.0
21 12.09 В 1 20 км н/о +16.4 +11.8 74 +17 +17 1031.3 1006.4
22 12.09 Ю 1 20 км н/о +13.9 +11.2 84 +15 +15 1031.8 1006.7
23 12.09 штиль 0 20 км н/о +12.2 +10.6 90 +12 +12 1031.9 1006.6
00 13.09 штиль 0 20 км н/о +11.4 +10.3 93 +11 +11 1032.2 1006.8
01 13.09 штиль 0 20 км н/о +11.0 +10.1 94 +10 +10 1032.1 1006.7
02 13.09 штиль 0 20 км н/о +10.3 +9.5 95 +9 +9 1032.2 1006.7
03 13.09 штиль 0 19 км н/о +9.8 +8.9 94 +9 +9 1032.0 1006.5
04 13.09 ЮЗ 1 19 км н/о +9.3 +8.4 94 +10 +10 1032.5 1006.9
05 13.09 Ю 1 13 км н/о +9.6 +8.8 95 +10 +10 1032.9 1007.3
06 13.09 Ю 1 20 км н/о +12.1 +11.6 97 +13 +13 1032.4 1007.1 +9.3 +20.2
07 13.09 ЮЗ 1 20 км н/о +15.4 +12.7 84 +17 +17 1032.3 1007.3
08 13.09 ЮЗ 1 20 км н/о +18.6 +12.6 68 +21 +21 комфорт 1032.2 1007.5
09 13.09 СВ 1 20 км н/о +21.5 +13.7 61 +24 +24 комфорт 1031.9 1007.4
10 13.09 СВ 1 20 км н/о +23.1 +14.6 59 +27 +27 душно 1031.7 1007.4
11 13.09 СВ 2 20 км н/о +23.7 +14.9 58 +27 +27 жарко 1031.2 1006.9
12 13.09 СВ 2 20 км н/о +24.5 +15.1 56 +27 +27 жарко 1030.8 1006.6
13 13.09 СВ 2 20 км н/о +25.2 +15.8 56 +28 +28 жарко 1030.2 1006.1
14 13.09 С 2 20 км н/о +25.3 +16.2 57 +29 +29 душно 1029.8 1005.7
15 13.09 СВ 2 20 км н/о +25.3 +15.9 56 +29 +29 душно 1029.7 1005.6
16 13.09 СВ 2 20 км н/о +25.1 +15.1 54 +28 +28 жарко 1029.4 1005.3
17 13.09 СВ 2 20 км н/о +23.8 +14.2 55 +26 +26 жарко 1029.6 1005.4
18 13.09 С 1 20 км н/о +20.9 +13.8 64 +25 +25 комфорт 1030.1 1005.6 +12.1 +25.7
19 13.09 С 1 20 км н/о +18.8 +14.5 76 +21 +21 комфорт 1030.7 1006.0
20 13.09 С 1 20 км н/о +17.5 +14.6 83 +19 +19 1030.9 1006.1
21 13.09 С 1 20 км н/о +17.3 +14.6 84 +18 +18 1031.2 1006.4
22 13.09 С 2 20 км н/о +17.4 +14.1 81 +18 +18 1030.8 1006.0
23 13.09 С 1 20 км н/о +17.0 +13.7 81 +18 +18 1031.0 1006.2
00 14.09 С 2 20 км н/о +16.8 +13.5 81 +17 +17 1030.9 1006.0
01 14.09 С 1 20 км н/о +16.3 +13.4 83 +17 +17 1030.5 1005.6
02 14.09 СВ 1 20 км н/о +15.4 +13.2 87 +16 +16 1030.4 1005.4
03 14.09 СВ 1 20 км н/о +14.2 +12.9 92 +14 +14 1030.2 1005.1
04 14.09 СВ 1 19 км н/о +13.1 +12.0 93 +14 +14 1030.3 1005.1
05 14.09 СВ 1 11 км н/о +13.6 +12.8 95 +14 +14 1030.5 1005.4
06 14.09 В 1 10 км н/о +14.2 +13.2 94 +15 +15 1030.9 1005.8 +13.1 +20.9
07 14.09 СВ 1 18 км н/о +16.3 +14.3 88 +17 +17 1030.8 1005.9
08 14.09 СВ 2 19 км н/о +18.5 +14.8 79 +20 +20 1030.8 1006.1
09 14.09 В 2 20 км н/о +19.0 +15.1 78 +21 +21 комфорт 1030.7 1006.0
10 14.09 СВ 1 20 км н/о +20.6 +15.4 72 +25 +25 комфорт 1029.9 1005.4
11 14.09 В 1 20 км н/о +23.1 +15.9 64 +28 +28 душно 1028.8 1004.5
12 14.09 С 2 20 км н/о +24.3 +16.3 61 +28 +28 душно 1028.0 1003.9
13 14.09 СВ 2 20 км н/о +24.8 +16.2 59 +28 +28 жарко 1027.4 1003.3
14 14.09 С 2 20 км н/о +25.0 +15.9 57 +28 +28 жарко 1026.9 1002.8
15 14.09 С 2 20 км н/о +24.7 +15.9 58 +28 +28 душно 1026.5 1002.4
16 14.09 С 2 20 км н/о +24.6 +16.6 61 +28 +28 душно 1026.3 1002.2
17 14.09 С 1 20 км н/о +23.8 +16.1 62 +27 +27 жарко 1026.5 1002.3
18 14.09 штиль 0 19 км н/о +20.8 +15.3 71 +24 +24 комфорт 1026.6 1002.2 +14.2 +25.6
19 14.09 СВ 1 20 км н/о +19.8 +15.9 78 +24 +24 комфорт 1026.9 1002.4
20 14.09 С 1 20 км н/о +18.5 +15.4 82 +21 +21 комфорт 1027.1 1002.5
21 14.09 С 1 20 км н/о +16.1 +14.1 88 +17 +17 1027.2 1002.4
22 14.09 С 1 20 км н/о +15.9 +13.6 86 +17 +17 1026.9 1002.1
23 14.09 СВ 1 20 км н/о +15.9 +13.9 88 +17 +17 1026.4 1001.6
00 15.09 СВ 1 20 км н/о +15.5 +13.5 88 +17 +17 1026.3 1001.4
01 15.09 ЮЗ 1 12 км н/о +13.1 +12.2 94 +14 +14 1026.3 1001.2
02 15.09 Ю 1 7000 м н/о +12.5 +11.7 95 +13 +13 1026.2 1001.1
03 15.09 штиль 0 11 км н/о +11.8 +11.0 95 +11 +11 1026.1 1000.9
04 15.09 штиль 0 4400 м дымка н/о +10.9 +10.1 95 +10 +10 1025.9 1000.6
05 15.09 штиль 0 12 км н/о +10.8 +10.2 96 +10 +10 1026.0 1000.7 0.2
06 15.09 штиль 0 16 км н/о +12.8 +12.5 98 +12 +12 1025.8 1000.7 +10.5 +20.7 0.2
07 15.09 Ю 1 19 км н/о +16.0 +14.5 91 +17 +17 1025.4 1000.6
08 15.09 ЮЗ 1 20 км н/о +19.5 +15.8 79 +23 +23 комфорт 1025.0 1000.5
09 15.09 ЮВ 1 20 км н/о +22.1 +15.9 68 +26 +26 душно 1024.7 1000.5
10 15.09 ЮЗ 1 20 км н/о +24.3 +16.6 62 +28 +28 душно 1024.2 1000.1
11 15.09 В 1 17 км н/о +26.2 +16.7 56 +30 +30 душно 1023.4 999.5
12 15.09 З 1 20 км н/о +27.7 +16.9 52 +32 +32 очень
душно
1022.5 998.8
13 15.09 ЮЗ 1 10 км н/о +28.7 +16.6 48 +32 +32 душно 1021.9 998.2
14 15.09 СВ 1 20 км н/о +29.7 +17.2 47 +34 +34 очень
душно
1020.9 997.4
15 15.09 Ю 1 8000 м н/о +29.9 +16.3 44 +33 +33 душно 1020.3 996.8
17 15.09 Ю 1 20 км н/о +28.9 +12.3 36 +30 +30 жарко 1019.7 996.1
18 15.09 СВ 1 20 км н/о +22.7 +15.0 62 +27 +27 душно 1020.3 996.2 +12.9 +30.4
19 15.09 СВ 1 20 км н/о +21.6 +16.5 73 +25 +25 комфорт 1020.6 996.4
20 15.09 СВ 1 20 км н/о +20.8 +16.8 78 +25 +25 комфорт 1021.1 996.8

 

Местоположение метеостанции Мененгейм (Франция): широта 47.92 долгота 7.40 высота над уровнем моря 220 м.

В архиве по умолчанию представлена погода в Мененгейме за последнюю неделю. Архивные данные за месяц целиком и за предыдущие месяцы, начиная с января 2011 года, Вы можете получить, выбрав интересующий диапазон дат из раскрывающегося списка и нажав кнопку "Ввод!".


*Определитесь, кто Вы:
робот инопланетянин человек

Внимание! Время в таблицах - всемирное. Для получения местного времени необходимо прибавить поправку, которая равна 1 ч.

Смотрите также архив погоды в соседних городах и на ближайших метеорологических станциях:

Погода во Фрайбурге (Германия) (35 км)
Погода в Евроаэропорту (Франция) (37 км)
Погода в Базель Биннингене (Швейцария) (43 км)
Погода в Фельдберге (Германия) (45 км)
Погода в Рейнфельдене (Швейцария) (51 км)
Погода в Мёлине (Швейцария) (52 км)
Погода в Доране (Франция) (56 км)
Погода в Ларе (Германия) (59 км)
Погода в Делемоне (Швейцария) (61 км)
Погода в Веве (Швейцария) (61 км)

Пояснения к столбцам:

Ветер - указаны скорость ветра в м/с - средняя за 10 мин, порывы в срок и между сроками (в фигурных скобках) и направление, откуда дует ветер: С - северный, СВ - северо-восточный, В - восточный, ЮВ - юго-восточный, Ю - южный, ЮЗ - юго-западный, З - западный, СЗ - северо-западный.
Видимость - горизонтальная дальность видимости в метрах или километрах. При видимости от 1 до 10 км при отсутствии осадков обычно наблюдается дымка, при ухудшении видимости до 1 км и менее - туман. В сухую погоду видимость может ухудшаться дымом, пылью или мглою.
Явления - указаны атмосферные явления, наблюдавшиеся в срок или в последний час перед сроком; фигурными скобками обозначены явления, наблюдавшиеся между сроками (за 1-3 часа до срока); квадратными скобками обозначены град или гололедные отложения с указанием их диаметра в мм.
Облачность - указаны через наклонную черту общая и нижняя облачность в баллах и высота нижней границы облаков в метрах; квадратными скобками обозначены формы облаков: Ci - перистые, Cs - перисто-слоистые, Cc - перисто-кучевые, Ac - высококучевые, As - высокослоистые, Sc - слоисто-кучевые, Ns - слоисто-дождевые, Cu - кучевые, Cb - кучево-дождевые. Подробнее классификацию облаков см. в Атласе облаков (PDF).
T - Температура воздуха - температура, измеренная на высоте 2 м над землей.
Td - Температура точки росы - температура, при понижении до которой содержащийся в воздухе водяной пар достигнет насыщения.
f - Относительная влажность воздуха - влажноcть воздуха, измеренная на высоте 2 м над землей.
Te - Эффективная температура - температура, которую ощущает одетый по сезону человек в тени. Характеристика душности погоды. При расчете учитывается влияние влажности воздуха и скорости ветра на теплоощущения человека.
Tes - Эффективная температура на солнце - температура, которую ощущает человек, с поправкой на солнечный нагрев. Характеристика знойности погоды. Зависит от высоты солнца над горизонтом, облачности и скорости ветра. Ночью, в пасмурную погоду, а также при ветре 12 м/с и более поправка равна нулю.
P - Атмосферное давление - приведенное к уровню моря атмосферное давление.
Po - Атмосферное давление - измеренное на уровне метеостанции атмосферное давление.
Tmin - Минимальная температура - минимум температуры воздуха на высоте 2 м над землей.
Tmax - Максимальная температура - максимум температуры воздуха на высоте 2 м над землей.
R - Количество осадков - Количество выпавших осадков за период времени, мм. При наведении курсора мыши на число - период времени, за который выпало указанное количество осадков.
R24 - Количество осадков - Количество выпавших осадков за 24 часа, мм.
S - Снежный покров - Высота снежного покрова, см. При наведении курсора мыши на число - состояние снежного покрова и степень покрытия местности в баллах.